This is the latest recevied weather packets stored in our database for station/object WW5JC. If no packets are shown the sender has not sent any weather packets the latest 10 day(s).
| Time | Temp. | Humidity | Pressure | Rain* | Wind** | Luminosity | Snow |
|---|---|---|---|---|---|---|---|
| 1788475570 | 32.78° C | 57% | 1013.4 hPa | 0 mm | - | 103 W/m² | - |
| 1788475266 | 33.33° C | 57% | 1013.7 hPa | 0 mm | - | 146 W/m² | - |
| 1788474987 | 32.78° C | 57% | 1013.7 hPa | 0 mm | - | 108 W/m² | - |
| 1788474659 | 33.33° C | 56% | 1013.7 hPa | 0 mm | - | 120 W/m² | - |
| 1788474354 | 33.89° C | 56% | 1013.5 hPa | 0 mm | - | 97 W/m² | - |
| 1788474053 | 33.33° C | 56% | 1013.6 hPa | 0 mm | - | 220 W/m² | - |
| 1788473749 | 33.33° C | 57% | 1013.7 hPa | 0 mm | - | 302 W/m² | - |
| 1788473447 | 32.78° C | 58% | 1013.9 hPa | 0 mm | - | 329 W/m² | - |
| 1788473146 | 32.78° C | 58% | 1013.6 hPa | 0 mm | - | 197 W/m² | - |
| 1788472845 | 33.33° C | 57% | 1013.9 hPa | 0 mm | - | 338 W/m² | - |
| 1788472545 | 32.78° C | 57% | 1013.9 hPa | 0 mm | - | 173 W/m² | - |
| 1788472244 | 33.33° C | 57% | 1013.9 hPa | 0 mm | - | 352 W/m² | - |
| 1788471944 | 33.33° C | 57% | 1014 hPa | 0 mm | - | 367 W/m² | - |
| 1788471639 | 32.78° C | 57% | 1013.9 hPa | 0 mm | - | 388 W/m² | - |
| 1788471334 | 33.33° C | 57% | 1014.1 hPa | 0 mm | - | 415 W/m² | - |
| 1788471030 | 33.33° C | 57% | 1014.1 hPa | 0 mm | - | 425 W/m² | - |
| 1788470726 | 32.78° C | 58% | 1014.3 hPa | 0 mm | - | 451 W/m² | - |
| 1788470421 | 33.33° C | 58% | 1014.3 hPa | 0 mm | - | 222 W/m² | - |
| 1788470115 | 32.78° C | 60% | 1014.4 hPa | 0 mm | - | 523 W/m² | - |
| 1788469813 | 32.78° C | 60% | 1014.7 hPa | 0 mm | - | 144 W/m² | - |
| 1788469507 | 32.22° C | 61% | 1014.6 hPa | 0 mm | - | 512 W/m² | - |
| 1788469203 | 32.78° C | 59% | 1014.5 hPa | 0 mm | - | 470 W/m² | - |
| 1788468896 | 32.22° C | 61% | 1015 hPa | 0 mm | - | 503 W/m² | - |
| 1788468591 | 31.67° C | 61% | 1014.9 hPa | 0 mm | - | 263 W/m² | - |
| 1788468287 | 32.78° C | 59% | 1015.1 hPa | 0 mm | - | 523 W/m² | - |
* Rain latest hour (hover to see other rain measurements)
** Current wind speed in m/s (hover to see current wind gust speed)